Flag for Australia Weather past 2 weeks in Mildura, Victoria, Australia

Now
82 °F

Pleasantly warm.


Feels Like: 80 °F
Forecast: 59 / 79 °F
Wind: 9 mph from Southwest

Location: Mildura Airport

Current Time: Jan 31, 2015 at 6:52:52 PM

Latest Report: Jan 31, 2015 at 6:00 PM


Visibility: N/A

Pressure: 29.81 "Hg

Humidity: 25%

Dew point: 43 °F

Location of MilduraLocation

Historic Weather in Mildura — Graph

°F

Mildura temperature yesterday

Maximum temperature yesterday: 82 °F (at 5:00 PM)
Minimum temperature yesterday: 56 °F (at 7:00 AM)
Average temperature yesterday: 70 °F

Past Weeks' High & Low Weather Summary

 TemperatureHumidityPressure
High98 °F (Jan 22, 5:00 PM)84% (Jan 17, 7:00 AM)30.06 "Hg (Jan 17, 7:00 AM)
Low52 °F (Jan 26, 7:00 AM)13% (Jan 19, 8:00 PM)29.57 "Hg (Jan 20, 6:00 PM)
Average73 °F39%29.84 "Hg
* Reported Jan 16 5:00 PM — Jan 31 5:00 PM, Mildura, Weather by CustomWeather, © 2014

Note: Actual official high and low records may vary slightly from our data, if they occured in-between our weather recording intervals... More about our weather records

Advertising

Mildura weather history for previous 24 hours

 ConditionsComfort  
Time TempWeatherWind HumidityBarometerVisibility
5:00 PM
Jan 31
81 °FPleasantly warm.10 mph23%29.83 "HgN/A
4:00 PM81 °FPleasantly warm.10 mph20%29.84 "HgN/A
3:00 PM80 °FScattered clouds.10 mph20%29.86 "Hg25 mi
2:00 PM78 °FPleasantly warm.15 mph27%29.88 "HgN/A
1:00 PM77 °FPleasantly warm.10 mph30%29.90 "HgN/A
12:00 PM73 °FMild.9 mph33%29.93 "HgN/A
11:00 AM69 °FMild.6 mph40%29.93 "HgN/A
10:00 AM65 °FMild.8 mph46%29.94 "HgN/A
9:00 AM63 °FSunny.8 mph53%29.93 "Hg25 mi
7:00 AM56 °FCool.7 mph66%29.90 "HgN/A
6:00 AM57 °FCool.9 mph60%29.88 "HgN/A
5:00 AM60 °FRefreshingly cool.10 mph55%29.87 "HgN/A
4:00 AM61 °FRefreshingly cool.10 mph49%29.86 "HgN/A
3:00 AM62 °FRefreshingly cool.8 mph43%29.85 "HgN/A
2:00 AM64 °FMild.9 mph35%29.86 "HgN/A
1:00 AM63 °FMild.5 mph34%29.86 "HgN/A
12:00 AM64 °FMild.5 mph32%29.86 "HgN/A
11:00 PM
Jan 30
67 °FMild.3 mph29%29.87 "HgN/A
10:00 PM72 °FMild.6 mph23%29.87 "HgN/A
9:00 PM75 °FMild.7 mph22%29.85 "HgN/A
8:00 PM79 °FPleasantly warm.13 mph18%29.84 "HgN/A
7:00 PM80 °FPleasantly warm.12 mph17%29.83 "HgN/A
6:00 PM81 °FPleasantly warm.10 mph17%29.84 "HgN/A
Weather by CustomWeather, © 2014

See weather overviewHow to use our weather pages